Simultaneous Nadir Overpasses (SNOs) Predictions

Prediction of SNOs over PacNW region [( 10.00, 139.50) to ( 22.70, 165.60)] between NOAA-19 and NPP Satellites:

Table of predicted SNOs over PacNW region for the next 30.0 days since TLE Epoch: 2/9/2013
Index Date (NOAA-19) Time (NOAA-19) NOAA-19 Lat,Lon Date (NPP) Time (NPP) NPP Lat,Lon Distance(km) Time Diff (sec)
1 02/09/2013 15:50:35 22.59, 149.97 02/09/2013 15:53:41 23.42, 146.21 396.41 186
2 02/10/2013 03:07:10 22.65, 153.40 02/10/2013 03:06:25 22.07, 150.67 287.32 45
3 02/10/2013 15:43:17 10.05, 149.67 02/10/2013 15:39:41 5.79, 146.80 569.24 216
4 02/22/2013 02:35:53 13.37, 162.88 02/22/2013 02:38:32 12.54, 159.27 402.47 159
5 02/22/2013 15:12:35 17.32, 158.60 02/22/2013 15:11:03 17.92, 155.92 292.55 92
6 03/06/2013 14:44:16 16.34, 165.58 03/06/2013 14:46:02 17.14, 162.06 385.34 106
7 03/06/2013</
